GFSWCAN_850_spd_003.txt.gz
Wind_Speed
19 19 20 21 21 22 23 23 22 22 22 23 22 21 22 20 15 19 16 9 9 7 5 10 13 10 7 6 3 3 2 2 2 1 2 2 3 4 2 3 4 6 5 4 2 2 5 2 2 1 2 11 8 3
18 17 20 19 19 20 21 21 22 23 23 23 22 20 21 20 17 15 19 9 8 5 2 5 9 13 13 8 12 8 1 3 2 3 2 2 3 2 3 3 1 2 5 2 6 5 3 6 8 13 14 12 7 2
17 17 20 18 19 19 20 21 21 22 22 22 22 22 21 20 17 12 16 18 4 3 5 6 11 13 12 13 11 5 4 5 4 5 2 2 4 3 3 4 2 3 3 3 1 2 5 7 8 9 9 5 1 6
17 17 20 18 18 18 20 21 22 23 23 24 23 23 22 21 17 12 14 15 8 5 3 4 8 10 14 16 15 16 13 7 7 5 3 3 2 4 3 2 3 4 3 2 5 6 8 9 7 4 4 9 14 15
17 17 20 19 19 19 20 22 23 24 24 25 25 24 23 20 16 14 15 12 10 6 3 2 4 7 8 9 10 12 13 13 8 3 3 3 2 2 1 0 3 6 6 4 4 3 2 4 4 5 9 14 16 21
16 18 22 19 19 20 21 23 24 25 26 28 26 26 25 20 14 11 1 5 7 6 5 2 1 2 5 6 7 10 10 9 5 4 3 5 5 6 3 3 5 11 10 7 2 1 2 3 8 8 13 16 19 24
16 18 21 19 20 21 23 24 25 26 28 31 30 29 25 19 11 10 5 4 4 7 4 1 2 2 4 4 4 8 10 7 8 4 4 3 3 5 2 3 5 8 9 12 9 5 3 10 6 12 16 19 23 25
16 17 21 20 19 21 23 24 26 27 31 34 32 24 13 9 9 12 11 12 4 5 2 1 2 1 6 4 3 6 4 6 7 4 3 2 3 3 4 7 15 12 9 9 12 11 3 9 15 18 20 25 28 28
17 17 20 21 19 20 23 24 25 29 33 35 22 4 2 4 5 3 9 9 9 7 2 2 3 3 6 2 4 3 4 2 3 2 2 3 3 5 7 7 11 15 14 15 14 9 7 15 22 24 27 29 32 31
16 17 19 22 19 19 21 23 26 28 34 22 9 3 1 4 3 6 7 6 7 6 5 2 5 2 5 3 2 1 2 1 2 1 3 2 4 20 22 19 14 9 16 14 17 12 15 21 27 29 31 32 32 34
15 17 20 19 19 19 20 22 26 30 31 20 11 5 13 3 4 4 3 5 4 1 5 6 11 4 7 3 2 3 1 1 2 2 2 2 3 3 6 22 29 12 15 15 14 14 17 22 34 35 32 31 31 29
15 17 18 17 18 19 20 23 26 28 18 13 13 12 7 4 3 1 2 1 3 5 3 3 6 6 6 5 2 2 1 1 3 3 1 3 4 4 7 6 12 20 13 17 13 9 16 21 31 32 33 31 29 27
16 16 16 16 17 17 20 24 27 24 9 4 3 3 3 4 3 5 5 2 0 1 4 4 1 5 4 5 3 2 2 3 1 1 3 4 6 10 3 3 8 15 15 17 12 12 17 23 30 31 33 30 28 26
16 14 14 15 14 17 22 25 25 8 3 3 4 4 2 2 2 2 2 3 5 4 8 4 3 2 3 3 1 3 1 1 2 3 6 3 4 7 3 3 9 16 19 17 14 15 19 27 31 30 30 30 29 27
14 14 12 10 12 18 22 25 12 4 2 2 2 1 2 3 5 6 10 9 5 6 3 3 1 5 1 3 1 2 1 4 5 5 3 3 5 5 2 4 10 18 20 18 16 19 24 29 31 33 31 29 27 26
11 14 6 9 14 18 23 18 4 2 1 2 1 2 4 1 4 3 7 9 11 16 2 3 1 1 3 4 4 7 5 6 4 4 5 2 3 1 1 4 9 16 20 20 18 21 27 31 34 35 32 29 26 25
10 9 9 12 14 17 19 6 3 2 0 1 1 3 4 7 8 3 5 7 15 8 1 0 4 6 2 1 3 5 5 3 6 5 4 1 1 1 2 5 11 16 19 20 22 26 31 34 35 35 34 30 27 25
13 12 11 12 14 16 7 2 2 1 2 3 2 4 6 10 13 12 6 6 9 8 6 2 4 2 5 5 4 4 11 9 5 4 4 1 1 2 5 8 13 15 18 20 23 28 33 36 38 36 34 32 29 26
11 11 11 11 11 11 3 1 1 1 4 3 5 6 7 12 14 14 15 12 9 8 8 4 4 3 4 2 3 11 12 7 6 7 6 5 5 5 8 11 14 17 19 20 24 31 36 38 37 36 34 34 31 29
12 12 11 9 8 4 3 2 2 2 2 1 4 5 7 10 15 14 14 11 9 4 4 4 3 1 5 11 17 19 18 16 10 8 8 8 8 8 10 13 16 18 21 23 28 34 38 37 35 33 33 31 30 29
10 10 6 4 6 8 4 3 2 2 2 3 3 5 6 8 8 5 6 7 4 4 3 4 5 12 15 16 15 17 19 15 14 11 7 10 11 12 14 16 17 21 24 27 31 35 37 39 37 34 33 30 27 25
5 5 4 3 5 3 3 3 2 2 2 1 3 3 4 4 5 2 8 3 4 3 4 10 18 23 23 21 21 19 21 19 14 16 14 11 16 18 20 21 23 26 27 30 34 39 38 36 36 33 31 30 28 28
3 3 3 4 5 4 2 3 3 2 1 2 4 2 2 3 3 6 3 4 4 4 11 15 19 20 22 22 20 18 16 17 16 16 16 14 16 18 19 22 25 27 30 32 36 39 40 38 36 34 33 31 31 29
4 3 3 4 7 3 3 3 2 1 1 2 1 4 3 3 7 1 4 4 5 5 12 16 19 22 19 16 16 15 13 13 16 16 14 15 17 19 20 22 24 26 29 34 38 40 39 38 36 34 34 34 30 27
3 4 4 3 4 2 1 2 3 2 2 2 1 4 3 3 2 3 3 4 6 6 14 21 22 19 21 22 19 16 11 10 13 16 15 15 16 19 21 23 24 26 28 36 41 43 42 39 36 36 34 31 29 27
2 6 6 6 3 4 5 3 4 5 3 2 5 4 2 1 1 6 3 5 8 10 20 25 26 26 23 19 22 19 16 10 11 15 15 17 19 23 25 30 31 28 29 36 43 45 42 38 38 35 32 28 25 24
4 6 5 6 4 5 2 2 3 3 3 5 3 1 3 1 5 4 6 9 11 21 27 25 22 23 24 23 21 18 15 13 13 14 15 16 18 21 25 29 32 32 35 37 40 39 35 39 38 36 34 29 24 20
7 9 6 10 6 5 4 2 4 6 4 6 5 3 6 7 5 4 6 16 24 26 25 22 19 19 21 20 19 17 14 11 11 11 11 13 16 18 19 21 22 28 34 37 40 38 36 37 38 35 32 29 26 22
6 7 11 3 3 4 8 6 5 7 6 11 5 4 4 7 12 17 24 24 23 24 23 20 14 14 15 14 13 12 11 10 12 14 15 17 18 17 16 19 25 31 38 39 38 35 35 35 35 32 26 26 25 22
9 14 6 4 6 6 5 11 3 5 9 10 6 6 10 20 23 22 23 20 18 19 16 15 14 13 13 13 13 10 10 12 17 17 20 23 22 23 24 28 34 39 41 40 40 41 39 37 33 29 29 27 23 20
12 14 4 6 4 3 6 9 8 6 7 8 13 15 17 14 19 17 12 12 15 14 14 13 11 11 12 11 9 8 8 9 13 17 16 19 24 28 30 34 38 41 42 43 44 43 40 36 33 31 28 25 22 18
10 10 6 3 2 3 5 7 4 4 4 4 5 7 6 5 6 5 6 10 11 10 9 10 10 9 8 8 8 9 9 8 10 14 15 25 30 32 35 40 44 46 45 43 42 39 34 33 33 29 26 23 20 17
6 5 4 4 2 2 4 5 2 3 3 3 4 4 4 4 6 4 4 5 5 7 8 8 7 6 6 5 3 5 7 9 12 17 22 26 29 35 38 39 39 40 40 39 36 34 33 31 29 26 23 20 18 16

GFSWCAN_850_spd_006.txt.gz
Wind_Speed
16 15 14 15 16 17 17 18 18 20 19 20 19 18 19 19 17 15 11 12 11 5 10 9 14 7 5 6 3 5 3 2 2 2 3 3 3 2 2 2 4 7 6 5 4 4 4 3 2 3 4 9 7 6
16 15 14 15 17 16 18 18 18 19 20 19 21 19 18 16 15 11 11 13 15 8 6 7 8 11 13 9 10 8 0 3 5 3 2 2 3 3 2 2 3 4 5 2 5 3 2 3 9 8 8 8 3 2
16 15 15 17 19 16 19 19 19 19 20 20 19 20 19 18 16 10 12 13 10 6 9 6 9 10 11 10 10 4 4 6 5 4 1 2 4 2 3 4 2 5 5 3 2 3 5 6 5 6 9 4 2 6
16 14 14 18 20 16 17 20 20 19 20 20 20 21 18 18 17 14 12 8 8 6 4 2 7 9 13 15 14 14 9 6 6 6 4 2 3 2 2 2 3 1 6 5 5 8 10 6 5 4 4 5 10 14
17 13 15 18 20 18 18 20 21 21 21 21 21 22 18 18 17 16 13 11 12 7 3 4 4 8 10 12 14 15 15 12 5 3 3 3 3 1 2 1 5 6 5 3 2 1 3 3 1 3 7 9 13 19
16 15 14 18 21 19 20 21 22 22 22 23 23 23 21 20 15 11 2 5 7 9 3 2 2 2 5 7 8 9 11 9 5 3 3 4 8 3 3 4 6 15 11 8 2 0 1 1 5 6 11 12 16 21
16 16 14 17 22 20 20 21 22 23 25 25 27 26 24 17 13 11 3 12 12 10 3 2 2 1 2 3 3 5 8 6 6 3 4 4 3 5 3 7 4 7 10 11 11 5 2 7 4 10 13 18 20 24
17 16 16 16 22 21 20 22 23 24 27 30 29 18 5 2 7 11 13 9 6 5 4 1 0 1 6 3 3 6 5 5 6 4 4 2 2 3 5 12 18 15 11 10 12 11 4 9 13 16 18 22 25 26
18 16 17 17 21 20 20 21 23 27 32 26 10 5 7 4 3 3 9 8 7 5 4 1 2 2 6 3 3 4 2 2 2 2 2 2 3 6 10 12 10 11 9 7 13 11 8 12 18 21 23 26 28 28
21 16 16 17 22 18 20 20 23 28 30 10 4 3 3 0 3 4 6 4 6 6 5 2 3 1 4 2 1 1 1 1 2 1 4 3 4 20 24 18 14 9 8 11 14 11 14 18 23 25 27 27 28 29
20 16 16 17 20 17 18 19 23 29 21 9 8 5 6 4 4 4 3 6 6 3 5 3 7 3 7 3 3 1 1 0 2 0 2 2 4 3 5 11 20 25 16 10 15 13 17 18 28 30 29 28 31 31
18 14 15 16 18 17 17 19 24 26 11 6 6 6 5 3 1 1 1 2 2 2 3 2 2 4 3 3 1 1 1 1 3 3 2 3 4 7 9 8 8 13 17 13 13 6 12 16 26 31 33 30 30 28
16 14 14 16 16 16 16 20 23 15 4 1 2 2 3 2 2 3 5 2 1 4 5 1 1 4 4 3 2 2 3 3 0 1 4 5 6 12 8 7 4 12 16 13 13 8 13 18 26 29 31 30 30 28
13 14 13 14 16 13 17 19 20 4 2 3 3 3 2 3 3 3 2 3 5 4 9 3 1 1 1 2 1 2 1 0 2 3 6 3 6 8 8 5 3 12 15 15 14 12 15 20 28 29 30 33 31 30
12 14 13 13 10 14 16 18 13 2 0 1 0 2 2 2 2 2 5 6 5 9 11 2 2 3 1 1 2 2 2 4 5 5 3 5 6 7 3 3 5 12 16 16 15 15 19 24 29 31 32 32 29 27
10 14 11 7 10 14 17 15 4 1 0 2 2 2 2 1 1 3 5 6 9 14 4 4 1 2 4 2 3 6 3 5 3 3 6 6 5 4 2 2 5 12 15 15 15 17 21 28 32 34 34 32 30 28
10 15 7 8 11 13 15 6 2 1 2 2 2 4 2 3 4 2 5 3 12 8 1 1 3 1 1 1 3 4 4 3 12 18 11 8 6 4 2 2 5 12 16 17 18 21 26 30 33 35 36 33 30 28
17 13 11 9 10 11 6 1 4 2 3 3 2 4 4 5 5 4 2 4 9 6 7 2 3 3 4 4 2 3 6 23 19 16 17 13 10 7 4 4 6 10 15 17 18 21 27 32 37 38 36 34 32 29
12 12 10 8 7 6 3 2 2 3 5 3 4 5 5 6 8 9 8 3 3 6 8 4 4 3 3 1 1 7 13 13 19 28 21 17 15 10 8 8 10 12 15 17 20 24 29 34 38 38 38 36 34 32
14 12 10 8 5 4 3 3 3 3 2 1 3 4 4 4 6 7 7 2 2 3 4 3 2 3 5 9 16 19 19 18 21 25 22 12 14 13 11 12 13 15 17 19 22 27 32 33 34 36 35 33 32 33
14 13 12 8 5 8 3 4 2 2 3 2 2 3 4 4 4 2 2 2 5 5 3 4 4 10 17 19 20 21 23 21 20 19 23 27 17 15 13 14 15 17 20 23 26 29 32 35 39 38 34 31 32 29
9 9 6 7 5 5 2 3 2 2 2 1 1 3 3 3 2 2 5 3 4 5 4 5 12 17 21 22 22 19 20 20 20 20 19 21 23 19 19 18 20 22 23 24 27 32 36 37 39 37 31 32 30 30
9 9 5 6 5 6 3 5 3 2 2 1 1 2 2 2 2 4 3 5 7 7 6 5 10 16 20 21 19 17 16 18 20 19 18 17 21 22 20 21 23 24 26 26 28 32 37 39 39 34 35 34 33 31
10 5 5 5 6 4 4 3 3 3 2 1 2 3 2 2 4 2 4 4 6 8 7 6 14 24 28 27 25 22 18 18 19 20 17 17 19 21 20 21 23 25 26 27 29 33 38 41 39 39 37 36 35 33
5 6 5 3 5 3 2 2 0 2 2 3 3 3 2 1 2 2 3 4 7 12 11 12 19 26 27 30 29 25 19 18 19 23 18 15 16 18 18 19 21 25 26 28 32 37 40 42 41 40 38 37 36 34
5 7 7 7 4 5 5 4 5 5 2 3 4 2 0 1 2 5 3 5 8 11 13 18 27 31 32 27 27 28 23 19 20 24 21 16 15 18 19 20 24 27 27 29 34 40 43 44 42 41 39 37 34 32
5 5 5 6 6 7 3 3 4 2 4 5 3 3 2 2 5 4 7 10 10 11 19 25 26 28 31 32 28 25 23 20 20 23 21 18 15 16 19 22 26 29 29 30 33 41 46 46 43 41 39 37 33 30
4 9 7 11 5 5 4 3 5 6 4 7 7 4 6 8 5 4 6 10 15 23 27 28 26 28 29 27 26 25 23 19 18 18 19 18 18 17 19 19 20 21 28 32 33 38 41 42 41 40 39 37 34 28
6 9 12 3 3 4 8 7 5 8 8 13 5 4 5 7 10 13 17 21 25 28 29 27 26 22 24 24 23 21 19 16 16 16 17 17 15 16 16 15 16 23 28 31 31 38 43 39 38 39 36 35 33 29
8 17 5 5 6 6 6 11 4 6 10 10 6 6 10 18 23 24 25 28 28 23 22 23 22 22 22 21 20 17 14 15 17 20 20 18 16 14 16 19 21 26 31 35 39 43 43 46 44 41 39 35 31 29
13 13 4 6 4 3 6 10 8 6 6 7 13 14 16 15 25 25 19 18 15 17 19 18 17 17 19 18 18 18 16 10 11 15 20 17 12 14 19 23 26 30 35 41 46 46 47 46 45 43 36 32 30 26
8 7 6 3 2 3 5 7 5 4 3 4 5 6 5 5 6 6 8 8 12 13 14 17 19 18 15 14 13 13 14 15 15 11 13 15 14 16 23 26 29 33 37 40 42 46 48 48 43 39 35 32 29 25
6 5 4 4 3 3 5 5 2 2 3 3 3 2 4 4 6 5 6 6 7 10 11 12 11 10 10 9 6 4 3 2 2 6 9 11 15 20 27 30 32 37 43 48 50 48 44 41 39 36 33 30 27 24

GFSWCAN_850_spd_009.txt.gz
Wind_Speed
16 16 15 13 15 18 15 18 18 17 18 20 20 20 18 17 15 13 8 10 7 4 12 4 9 6 4 7 3 5 3 1 2 1 1 2 2 1 3 2 5 8 6 4 4 4 6 3 2 4 6 9 7 3
17 18 15 12 15 18 16 18 18 18 18 18 20 19 20 17 15 14 6 7 11 6 8 7 10 12 8 6 1 5 3 3 2 2 3 1 2 3 4 3 4 5 7 2 6 3 6 9 10 11 7 9 7 4
17 18 14 13 16 20 17 16 17 18 18 18 19 20 20 19 15 12 12 8 9 5 10 7 8 11 11 12 9 4 2 4 3 2 1 1 5 1 3 6 4 6 5 4 4 3 6 12 8 4 6 5 4 3
17 18 15 13 16 21 17 19 18 17 18 18 18 20 20 21 14 15 13 10 8 6 3 2 7 10 13 13 13 12 4 5 4 4 3 2 3 5 3 4 5 3 4 4 9 14 11 4 5 2 3 3 6 7
14 16 16 14 15 21 20 19 19 19 18 19 21 20 21 22 17 19 16 15 14 6 3 5 2 8 11 13 14 13 8 6 4 3 3 3 3 4 6 4 9 9 8 6 6 5 5 5 4 3 5 6 7 11
12 17 17 14 15 18 23 19 20 19 20 20 23 24 24 22 17 12 5 5 6 16 4 2 0 2 6 8 8 7 7 8 7 4 3 4 7 4 3 5 11 15 20 17 10 1 1 2 1 2 6 9 10 13
13 18 18 15 15 18 23 21 21 21 22 25 27 29 27 23 16 12 4 8 11 12 3 3 1 2 3 4 3 4 5 4 5 3 4 3 4 5 3 9 7 5 7 9 7 5 3 6 3 6 9 13 15 17
11 15 19 17 16 19 21 21 21 22 26 29 24 13 5 2 5 11 16 7 7 5 3 2 1 3 6 4 4 5 4 6 6 4 3 3 4 3 5 13 17 18 18 9 9 10 8 6 9 12 13 17 20 19
15 17 19 20 18 19 23 20 20 24 28 23 5 1 4 3 3 4 6 10 7 4 2 2 3 2 7 3 3 6 3 3 4 2 3 2 3 6 10 7 9 8 7 7 11 10 10 9 13 16 18 18 22 21
17 15 18 20 18 18 21 19 21 25 28 10 2 1 1 1 5 4 6 4 6 4 4 2 2 2 6 4 4 2 3 2 2 1 3 3 5 23 25 22 14 7 7 9 10 10 14 16 17 20 22 19 21 24
15 17 17 19 18 18 19 19 20 27 18 6 4 2 3 3 6 4 4 4 5 2 4 3 6 1 3 2 2 1 1 0 2 0 2 2 4 3 3 8 10 14 16 15 8 10 14 13 20 23 22 22 24 26
16 18 18 17 15 17 16 17 19 22 12 7 4 4 1 2 3 3 2 1 3 1 1 1 3 1 1 1 1 1 1 1 3 3 2 3 4 5 8 15 11 11 11 16 14 11 10 15 19 24 27 27 27 27
18 19 19 16 14 17 17 15 17 16 7 4 2 2 2 1 1 1 1 1 1 5 8 5 0 0 1 1 1 1 2 2 1 2 3 4 8 13 11 13 11 6 8 13 12 11 10 14 20 27 28 28 30 28
18 19 17 15 14 18 14 15 16 8 2 1 2 2 2 1 1 1 1 1 2 2 9 5 2 0 1 1 0 1 1 2 2 3 4 3 16 18 17 12 8 2 6 8 9 9 12 16 22 25 28 30 31 29
18 18 17 15 15 16 13 16 11 2 3 3 2 2 2 1 2 1 1 2 2 4 6 1 2 1 1 1 1 1 1 4 4 3 3 17 25 22 19 15 9 4 7 8 9 10 12 16 23 26 28 31 30 29
16 18 17 11 11 11 14 14 5 3 2 3 3 2 2 2 2 1 2 2 4 7 1 2 1 1 3 2 3 6 3 5 0 3 16 21 23 20 19 16 11 6 7 9 10 10 13 18 24 27 30 31 29 29
17 17 11 6 9 13 14 8 3 3 3 3 3 5 3 1 2 0 3 2 5 4 0 0 3 3 1 3 3 4 4 2 9 14 17 21 22 21 20 17 12 7 8 10 11 12 15 20 24 29 33 32 30 28
22 16 8 9 10 12 10 4 3 3 4 5 3 4 4 2 3 3 1 2 4 3 2 0 1 3 4 3 2 2 4 13 12 13 22 26 23 19 18 17 13 9 8 10 12 14 17 22 28 32 34 33 30 28
19 13 9 9 8 5 3 3 4 3 5 2 3 3 3 3 4 5 5 3 2 3 5 3 4 3 2 3 3 6 10 12 18 25 26 23 19 22 20 16 13 10 10 11 13 15 18 23 30 33 34 33 33 31
16 10 12 8 7 3 3 3 4 2 2 1 3 4 2 2 2 3 4 2 3 2 3 3 3 1 2 2 9 13 15 16 18 21 19 13 22 23 20 19 14 11 10 11 13 16 20 24 26 31 34 35 34 33
16 20 15 9 6 7 3 3 2 2 1 2 1 3 3 2 1 1 1 3 4 4 3 8 4 5 7 12 14 16 19 16 15 17 26 29 26 26 24 19 17 13 12 14 16 18 22 25 27 32 35 34 34 27
17 17 9 7 5 4 4 5 2 2 2 1 2 3 3 2 3 3 4 4 5 6 6 5 6 7 8 11 14 16 18 20 22 23 23 23 24 23 23 20 18 16 16 17 18 20 23 26 30 34 36 36 31 26
16 12 8 7 5 5 3 5 4 3 2 2 2 2 2 2 2 3 3 6 6 9 11 9 7 5 9 15 19 20 18 19 21 22 22 23 25 23 23 22 20 18 19 20 20 22 24 27 32 36 36 34 29 31
14 9 5 6 8 3 4 4 3 3 2 2 2 2 2 1 1 2 3 4 7 8 11 12 10 10 15 20 24 25 23 19 22 24 22 21 24 24 21 21 20 19 19 21 22 22 25 30 33 37 38 34 34 34
7 7 5 5 6 4 4 4 3 3 3 3 3 2 2 1 2 3 4 4 9 11 12 14 16 15 19 25 27 26 24 22 22 26 25 22 23 24 24 21 20 20 19 21 23 25 27 31 36 40 40 37 37 37
5 10 8 8 5 5 5 5 5 5 3 3 4 1 2 2 2 5 3 6 11 10 11 13 15 19 25 25 29 30 27 25 25 27 30 24 20 20 20 20 23 22 21 20 22 26 30 34 38 42 39 36 37 37
6 6 6 6 5 5 3 2 3 2 4 5 4 5 3 3 5 3 6 10 12 12 11 13 19 24 29 31 30 30 29 26 25 28 28 28 26 25 25 24 24 25 19 23 24 26 32 36 41 42 39 38 37 35
3 9 7 11 6 5 4 3 5 6 4 6 8 5 6 6 4 4 6 6 10 13 19 23 25 28 29 29 30 29 28 26 25 25 27 28 25 23 22 24 23 21 17 22 26 28 31 36 41 42 41 40 39 36
6 9 11 4 3 5 7 7 5 7 7 12 5 4 4 7 7 9 12 14 20 23 26 29 27 25 26 27 27 25 24 23 23 25 25 26 21 19 14 16 17 17 18 20 27 27 29 33 39 44 39 39 36 33
8 16 5 6 6 6 6 10 4 6 10 10 6 5 8 16 20 20 22 26 27 26 23 21 23 25 25 27 28 26 22 21 21 24 26 25 18 16 13 12 15 17 19 24 27 25 25 33 42 43 43 41 39 36
14 12 4 5 3 3 7 9 8 6 6 7 12 13 15 15 26 26 19 17 15 14 17 20 21 22 25 25 25 26 25 16 13 14 16 18 19 17 11 11 15 17 21 25 28 34 36 41 43 44 44 42 39 36
8 8 6 4 2 2 4 6 5 4 3 4 5 7 6 5 6 7 9 8 9 12 15 18 20 19 17 18 19 19 19 18 16 16 17 16 14 13 11 13 18 22 25 29 33 34 34 39 45 47 45 42 35 30
5 5 4 4 3 3 4 4 2 2 3 3 4 4 5 4 7 6 7 7 8 9 11 12 12 14 15 16 15 13 10 7 6 4 6 8 9 11 14 18 21 22 25 29 33 35 40 47 48 45 40 36 32 28

GFSWCAN_850_spd_012.txt.gz
Wind_Speed
24 23 18 20 14 13 18 21 18 19 19 19 19 20 19 18 16 13 6 8 11 6 16 8 5 6 1 5 3 6 4 1 2 1 1 1 2 3 3 3 5 7 6 3 3 4 7 1 1 2 3 7 7 6
20 20 17 20 14 12 18 21 18 17 18 18 18 18 19 18 17 14 8 7 9 11 10 8 14 14 7 2 2 9 2 4 2 2 2 1 2 3 5 3 0 3 5 4 6 6 7 9 9 6 4 7 8 2
17 18 18 18 16 13 17 21 19 18 18 19 18 18 19 15 16 11 13 10 8 7 14 12 8 13 15 11 6 3 3 5 4 2 2 1 3 2 2 4 4 4 6 2 2 4 5 6 6 3 6 5 5 6
11 15 19 17 17 14 16 22 22 19 20 19 18 19 20 17 16 16 14 10 9 9 5 4 7 9 13 13 11 9 4 7 6 6 3 2 2 4 3 4 3 3 1 4 5 9 7 7 6 4 5 3 6 8
10 14 20 17 17 15 15 21 25 21 21 20 20 20 21 20 18 18 18 17 15 12 4 7 5 11 12 13 12 11 7 5 4 3 2 3 3 3 4 4 7 6 5 4 4 3 2 2 5 2 0 4 7 11
15 16 17 16 18 16 16 20 25 25 21 21 22 24 24 22 16 11 6 2 11 18 6 3 1 5 10 11 10 9 7 7 5 4 3 4 5 5 3 4 6 21 23 22 5 3 2 2 3 0 3 6 8 11
12 14 16 15 17 17 16 21 27 23 22 23 26 22 18 13 11 12 3 2 11 13 5 3 2 6 9 9 8 8 9 4 5 3 4 3 5 8 3 7 11 19 13 16 8 8 4 3 2 3 6 9 11 14
17 16 18 18 18 18 16 22 28 24 24 25 22 8 6 6 4 6 17 13 4 9 5 2 1 5 9 5 5 7 6 6 6 3 3 3 3 5 5 10 17 21 26 22 13 9 8 5 5 7 9 13 16 17
21 21 17 18 19 19 17 23 25 24 27 24 4 1 2 4 2 2 2 4 8 5 4 3 3 2 8 3 4 5 4 2 6 3 2 2 2 4 6 10 12 11 7 4 7 13 10 9 9 11 15 16 18 20
22 20 16 17 21 18 16 23 22 24 27 6 1 1 3 2 1 3 4 3 4 4 4 2 2 2 4 4 4 4 3 0 0 0 0 2 3 18 22 22 21 20 13 11 7 7 11 12 14 16 18 18 19 21
21 17 14 16 19 17 16 22 20 24 18 6 4 2 2 1 3 3 3 2 3 2 4 4 2 3 3 1 1 3 1 1 1 1 1 2 2 3 14 13 17 15 11 15 15 8 8 14 16 18 20 20 20 21
22 18 15 15 18 15 16 19 17 19 15 9 7 3 1 2 3 2 3 2 3 1 1 1 2 4 2 2 1 0 2 1 2 2 1 2 1 20 25 25 21 15 11 12 14 12 6 8 10 16 22 22 23 23
19 18 16 14 18 12 16 19 15 16 10 5 3 2 0 1 3 3 3 1 1 4 6 5 1 1 2 2 3 1 2 3 0 1 2 3 12 24 26 24 21 14 6 4 8 8 7 10 12 17 23 23 24 24
20 18 15 15 19 10 15 16 14 12 3 1 2 3 3 3 2 1 2 2 2 2 5 2 1 1 1 2 1 2 1 1 2 2 4 2 19 25 23 23 20 16 8 4 2 4 7 12 14 16 20 23 23 26
19 15 16 16 17 10 16 10 12 6 3 2 2 3 4 1 1 1 1 2 2 3 4 1 1 1 1 2 1 2 1 3 4 3 2 15 23 23 23 23 21 16 10 4 3 3 7 13 17 20 22 25 26 29
16 15 17 16 9 9 9 11 8 3 3 3 4 3 2 1 3 2 2 2 2 5 2 1 1 2 2 2 2 5 3 5 2 1 12 20 24 24 23 22 19 15 10 7 5 4 6 11 15 19 22 25 28 29
16 20 17 12 5 6 10 9 3 4 3 3 4 9 3 1 0 3 1 2 3 0 0 2 3 3 1 3 3 4 4 2 4 10 12 20 21 23 23 21 19 15 10 8 7 5 6 10 14 19 24 26 28 28
21 20 16 11 4 8 10 4 4 4 5 7 3 5 7 2 3 2 2 3 2 1 1 1 3 2 3 3 3 2 5 8 6 10 17 19 17 20 23 23 20 17 12 9 8 7 8 10 14 20 25 27 27 28
23 20 15 9 4 3 3 3 4 4 7 4 4 3 4 3 6 7 6 3 3 3 1 1 3 3 1 2 2 3 6 7 12 19 20 17 11 23 23 22 21 17 15 11 8 7 8 10 16 21 25 27 30 29
21 18 12 12 8 4 3 3 4 3 3 2 4 4 4 2 4 6 6 5 3 2 3 3 4 3 3 4 3 8 11 13 16 22 24 19 26 24 25 23 19 18 15 13 10 8 9 13 16 18 23 28 30 31
26 16 15 13 10 6 3 3 3 4 3 2 3 3 3 4 2 1 2 4 4 5 2 9 8 7 8 6 5 9 12 15 16 17 22 26 26 23 22 21 19 18 15 13 12 10 11 13 15 18 24 29 29 30
21 21 16 16 4 6 6 7 3 3 3 1 3 3 3 3 5 4 5 5 6 8 7 7 10 8 6 3 3 8 12 14 16 19 21 23 24 25 23 23 23 21 17 16 15 15 13 13 16 20 25 28 31 31
18 20 10 6 4 8 3 6 4 4 3 3 2 1 3 3 3 5 3 7 7 9 15 15 12 8 8 6 9 14 17 19 20 20 21 23 25 25 22 21 21 21 20 17 16 17 17 14 16 21 26 29 31 32
19 11 6 9 8 3 4 4 4 3 3 2 2 2 2 5 4 3 3 5 9 8 11 13 12 12 12 13 14 17 21 22 23 25 24 24 25 26 24 25 24 23 21 19 18 18 18 19 19 22 28 31 34 36
7 6 6 4 6 4 4 4 3 3 3 3 3 2 2 3 1 3 3 4 13 14 12 12 14 15 17 17 19 22 24 24 25 28 30 26 26 28 28 27 24 22 17 18 19 19 21 22 24 23 28 33 37 36
5 11 11 10 6 5 6 5 5 6 3 3 4 2 3 2 0 6 3 5 11 12 14 15 14 15 18 19 23 26 27 26 26 30 31 28 25 24 25 23 25 23 18 16 18 21 23 26 27 27 29 35 37 35
6 5 8 8 6 5 3 2 4 3 5 5 3 3 3 2 6 4 6 8 9 10 13 15 16 17 21 25 27 29 27 26 27 28 28 27 29 28 28 32 33 29 22 20 17 20 25 27 30 30 32 35 38 36
4 10 7 13 7 7 4 3 5 6 4 7 10 4 7 8 5 4 6 7 7 11 14 15 18 23 26 29 28 27 27 25 25 26 28 29 29 26 23 23 24 23 22 21 20 19 23 27 30 33 35 39 40 37
5 12 13 4 4 5 9 8 5 8 7 13 5 4 4 6 6 6 6 9 13 17 20 22 23 25 24 23 24 24 25 25 26 27 28 30 28 23 15 15 16 16 17 19 18 19 22 26 27 30 34 37 38 38
8 19 6 6 6 6 7 11 5 7 10 11 6 5 6 11 14 14 16 20 23 25 24 22 18 20 22 24 28 27 23 23 23 24 28 29 26 19 14 14 14 15 15 15 16 19 19 22 25 31 34 38 40 39
17 11 5 6 4 4 6 9 8 6 6 8 14 14 13 12 23 25 21 20 19 17 14 13 15 17 20 21 21 25 27 22 18 15 17 20 20 19 16 15 13 12 13 15 19 22 26 33 32 34 38 40 41 40
10 7 6 4 2 3 4 6 4 4 4 6 5 7 5 4 6 8 14 10 9 9 10 12 14 14 15 16 16 18 20 22 21 18 17 20 21 18 15 12 10 10 13 17 22 29 33 31 31 35 37 41 40 39
5 5 4 5 3 2 4 4 3 2 3 3 3 3 5 4 8 7 8 9 9 8 8 8 10 12 14 16 17 17 17 17 17 15 13 11 9 8 9 10 10 13 16 19 23 29 31 27 30 36 42 45 42 36

GFSWCAN_850_spd_015.txt.gz
Wind_Speed
13 16 21 18 21 16 10 13 20 19 13 17 16 15 15 15 17 14 5 6 4 4 23 14 14 6 6 5 4 4 3 2 1 2 2 2 2 2 1 4 6 6 6 3 4 4 7 6 5 4 6 5 6 5
22 27 20 14 18 16 9 10 20 18 16 15 16 15 16 16 14 16 15 9 8 11 12 13 17 16 14 3 2 8 2 3 5 3 1 1 2 1 2 3 3 2 6 4 7 6 7 7 10 10 7 10 8 5
22 20 11 11 16 16 13 10 15 21 20 16 16 15 15 16 15 15 18 13 9 9 20 22 20 16 17 13 6 4 3 3 3 4 3 1 3 1 2 4 2 3 8 3 2 6 8 12 3 6 8 9 7 6
16 16 13 8 14 17 15 11 13 20 22 19 16 15 16 15 16 16 19 15 11 8 5 8 8 12 17 17 12 9 2 6 8 5 3 2 1 4 3 3 2 5 6 2 5 8 5 3 4 6 6 3 2 7
17 14 12 10 16 15 15 12 12 19 24 20 19 17 18 19 20 20 22 23 19 15 4 10 12 18 16 16 15 11 9 6 4 3 2 3 2 2 3 2 4 5 6 4 5 7 3 3 5 6 5 2 4 8
18 14 11 12 13 14 16 12 12 19 23 21 19 21 21 16 16 15 5 6 13 20 6 4 5 14 17 14 14 13 11 7 3 3 4 4 4 6 2 3 6 14 18 20 11 12 8 4 4 5 4 4 6 7
18 18 16 14 14 16 18 13 14 20 26 21 22 21 13 6 7 10 4 2 9 18 5 4 3 8 16 14 11 10 10 5 6 3 3 3 4 8 2 6 7 19 28 26 21 10 6 8 5 4 4 6 9 10
18 16 14 16 14 15 19 14 16 23 23 24 22 7 2 4 4 2 14 16 5 11 6 3 2 5 16 7 6 9 8 7 6 3 2 3 3 4 3 5 17 19 18 11 12 11 12 7 5 6 6 9 13 15
17 16 16 15 14 15 19 14 17 24 22 18 4 1 2 1 1 1 2 3 8 7 4 3 0 3 8 5 6 6 6 3 7 3 3 4 2 3 3 12 19 20 14 14 10 7 8 9 9 10 11 14 15 17
18 18 16 14 11 14 15 14 18 22 21 6 1 2 1 2 1 2 4 3 3 5 5 3 4 2 5 4 4 6 5 2 2 2 3 2 3 3 19 20 21 22 18 12 12 10 10 12 13 14 17 16 15 18
17 15 17 14 10 14 12 13 19 20 15 6 5 1 3 3 2 2 3 3 3 3 4 5 2 3 2 2 2 1 2 1 1 2 2 2 1 6 22 22 22 20 16 14 15 15 12 12 12 17 18 18 17 17
17 15 17 13 10 13 15 11 17 17 14 9 5 6 2 1 2 2 2 2 3 2 2 2 4 3 4 3 3 1 2 1 3 1 1 2 1 19 22 24 23 19 17 13 9 12 12 11 9 15 19 20 20 21
17 15 13 10 10 14 15 9 15 14 12 1 1 2 2 2 3 3 3 2 1 5 5 3 1 2 3 2 3 1 2 3 2 1 2 2 10 21 22 23 22 17 13 8 4 6 9 8 9 15 18 20 20 21
14 13 14 10 11 14 11 7 11 12 4 0 1 3 3 3 4 2 1 0 1 2 6 4 1 2 2 3 1 2 1 2 1 2 3 2 17 21 20 21 21 20 14 12 8 3 4 7 10 14 16 17 21 24
14 13 12 11 12 14 9 6 8 8 2 1 2 4 4 4 3 2 1 2 2 2 3 1 2 1 2 1 1 2 1 3 4 4 1 9 15 17 21 22 22 20 15 11 9 6 2 5 8 11 14 15 18 21
17 11 14 13 12 9 7 3 7 3 2 3 5 3 5 1 2 3 4 3 2 4 1 1 1 1 2 2 2 4 3 5 2 1 3 12 12 15 21 22 20 18 15 12 9 6 4 4 8 11 13 16 21 22
18 16 17 11 8 5 2 3 3 3 3 4 5 9 10 3 1 3 2 1 3 1 1 0 3 3 0 2 2 2 1 2 3 3 8 12 11 13 19 20 21 19 16 13 11 7 5 5 7 11 15 18 20 20
22 19 16 11 7 5 2 3 3 4 5 8 3 5 9 4 4 4 4 5 2 1 0 1 0 2 3 3 3 2 3 0 1 4 9 11 10 12 19 20 20 18 16 14 11 10 8 7 8 12 15 17 19 21
25 19 14 11 7 4 1 4 4 4 7 4 7 8 7 4 7 7 7 6 5 3 2 1 3 3 3 2 4 8 4 1 4 9 12 11 9 17 18 17 14 15 16 14 12 9 8 8 9 10 14 19 22 25
18 14 13 10 10 5 3 4 5 4 3 2 5 4 5 4 5 9 10 9 7 3 3 4 5 4 5 7 5 2 2 3 6 9 10 11 13 16 17 17 17 16 14 14 12 10 8 9 10 11 13 19 23 26
19 20 16 14 14 8 3 4 4 3 3 3 3 5 3 5 5 4 4 6 5 5 3 11 10 8 7 6 6 3 2 4 7 10 14 17 17 17 18 19 18 17 15 14 14 12 12 10 10 11 14 19 22 26
28 24 19 17 5 8 6 6 3 2 3 2 2 3 3 2 4 5 7 7 7 9 9 7 11 14 11 9 7 5 3 6 9 12 14 16 18 20 21 20 19 17 18 15 13 14 12 12 12 13 16 18 22 25
27 25 12 7 5 9 3 5 4 3 2 2 1 1 3 3 3 6 4 8 9 12 15 15 12 10 10 10 10 7 7 9 12 15 17 18 20 20 21 20 18 19 20 20 15 15 15 12 14 15 17 20 21 25
23 14 7 10 7 5 5 4 4 3 2 1 2 3 3 5 4 3 4 5 10 8 12 15 14 13 13 14 15 13 12 15 18 21 22 21 23 23 21 22 23 23 21 21 20 16 15 14 15 17 20 22 24 28
8 7 7 4 6 5 3 3 3 3 3 3 3 3 3 5 1 3 3 5 11 13 12 11 12 14 14 13 13 14 17 19 22 26 28 26 26 27 27 25 23 22 21 17 18 15 15 14 18 20 22 25 28 30
5 11 11 11 5 6 6 5 6 6 3 4 5 2 3 2 1 6 3 5 9 11 14 13 13 14 15 15 16 18 21 24 26 31 31 28 27 26 28 29 30 28 19 16 17 15 14 15 19 23 24 26 29 32
7 6 8 8 8 6 3 2 4 3 5 6 3 4 3 3 6 4 5 8 10 10 8 8 13 16 18 18 21 23 26 30 32 31 32 32 31 29 28 29 32 31 24 21 19 19 18 17 19 23 26 27 30 33
6 12 8 16 6 7 4 3 5 6 4 6 9 5 7 7 4 3 6 10 11 8 8 11 14 17 19 22 26 30 31 28 28 31 33 34 32 29 27 25 24 22 21 21 20 20 22 20 20 21 25 28 31 32
6 16 15 4 5 5 9 7 5 7 7 12 5 4 4 5 5 5 7 9 9 12 14 16 18 21 23 26 24 23 24 25 27 31 32 34 32 27 17 18 19 18 18 17 15 17 19 20 20 21 23 26 30 29
10 22 7 6 6 7 11 13 5 7 11 10 6 5 6 9 9 10 13 16 18 20 21 23 22 19 17 18 21 21 18 19 22 23 27 29 29 24 19 17 17 17 17 17 16 15 16 18 17 21 26 27 29 30
25 10 6 5 4 5 7 12 9 7 7 9 15 15 14 12 22 25 23 22 21 20 20 16 12 12 15 17 19 23 25 19 19 20 21 24 25 25 22 17 14 15 17 16 14 13 15 21 25 27 26 28 29 33
9 6 6 4 2 5 6 7 5 4 4 5 6 10 6 5 6 9 15 13 12 11 9 9 9 10 13 15 16 17 20 23 21 21 21 21 20 19 17 15 15 15 13 12 10 13 20 25 25 25 26 28 30 31
6 6 5 6 4 3 5 5 3 3 4 4 3 3 5 4 7 7 8 10 9 7 6 7 8 10 12 14 14 16 18 20 19 17 17 18 17 13 10 9 9 11 10 9 11 15 22 24 24 25 25 26 29 38

GFSWCAN_850_spd_018.txt.gz
Wind_Speed
10 14 16 23 27 15 13 10 10 14 14 13 12 14 11 10 11 10 8 7 5 6 21 20 14 6 3 1 3 4 4 1 2 3 3 3 1 2 1 3 5 6 6 3 4 4 7 7 4 3 5 7 6 6
14 20 22 22 19 12 13 11 10 11 15 18 10 12 13 11 11 11 14 9 8 11 14 16 19 20 18 9 3 5 1 4 7 3 2 2 2 2 2 3 3 4 6 4 7 5 5 6 9 15 15 13 12 7
18 26 20 17 17 12 10 14 9 9 13 16 15 13 12 11 13 11 16 14 13 10 22 19 26 29 25 21 14 4 4 5 5 3 5 2 1 2 2 5 2 4 6 3 0 5 10 18 18 14 12 13 12 8
26 21 16 18 14 13 10 14 11 10 13 17 21 14 14 14 12 13 18 17 14 6 6 10 10 12 20 21 21 16 5 7 8 5 3 2 2 4 2 3 2 4 3 4 5 9 14 10 8 9 11 10 8 6
21 17 16 15 11 12 13 13 10 10 13 19 23 16 14 17 17 16 19 21 20 14 4 14 28 16 22 18 22 15 12 10 6 3 2 3 2 2 2 1 3 5 5 4 5 10 6 10 9 10 12 10 7 8
19 18 17 14 14 11 12 15 12 12 15 21 18 17 19 16 12 13 4 3 9 21 6 4 7 13 23 20 19 17 13 8 4 4 3 3 3 4 2 3 6 9 12 13 7 14 16 18 12 14 11 9 7 8
20 17 17 17 14 12 14 16 14 13 17 23 20 20 14 5 6 5 4 4 3 16 4 4 4 10 21 20 16 16 14 5 4 3 3 3 5 7 2 3 2 15 18 26 12 14 12 15 11 9 8 8 7 8
18 17 16 14 14 12 13 16 14 15 20 20 15 3 2 3 3 1 4 7 3 12 6 3 4 8 20 8 6 7 8 8 6 3 3 3 3 5 3 4 14 14 19 12 15 10 15 14 11 10 9 8 8 10
18 15 15 14 14 11 11 15 14 16 20 14 3 2 1 1 2 2 2 3 5 6 4 3 3 3 9 8 6 6 6 2 4 2 3 5 2 3 2 10 15 16 13 20 20 13 9 9 10 11 11 11 11 13
17 14 14 16 14 10 11 14 13 17 17 5 4 2 1 2 2 4 3 2 4 5 6 4 7 2 4 5 3 5 5 2 3 3 6 2 2 7 8 15 15 17 15 14 16 13 12 13 13 13 14 12 12 13
13 15 14 13 13 10 11 14 14 15 10 4 1 2 4 4 2 2 3 3 4 3 6 6 3 1 4 3 2 4 2 1 2 2 2 2 2 3 17 18 17 15 13 11 13 18 17 15 13 14 16 16 16 16
12 13 15 12 12 10 11 14 13 12 10 7 5 3 2 0 2 2 2 3 4 3 4 3 4 3 3 3 3 1 2 1 1 2 2 2 1 12 17 19 19 16 13 11 9 8 7 11 12 10 14 17 17 16
19 15 13 11 9 10 11 13 10 10 10 2 1 1 1 2 3 3 3 2 2 5 6 7 2 4 3 3 4 2 2 2 4 2 3 1 6 14 17 18 18 15 12 10 8 4 3 5 6 6 12 15 17 18
19 13 13 12 10 10 11 13 8 7 3 2 2 2 3 3 4 1 1 1 3 4 6 5 3 4 3 3 1 2 1 2 2 3 4 0 9 12 16 17 18 18 15 13 11 11 7 4 4 7 10 12 16 17
19 16 10 11 11 11 13 12 6 5 3 2 3 4 4 5 4 2 4 3 3 5 4 1 1 2 2 1 1 2 2 3 4 4 2 3 6 10 15 19 20 18 16 13 11 9 8 5 4 6 8 10 13 15
17 19 13 12 12 13 12 8 6 4 2 3 5 3 6 1 2 3 7 5 4 5 2 1 1 1 2 2 1 4 2 4 2 2 3 4 4 7 13 17 19 18 17 14 11 9 7 4 5 6 7 10 13 16
21 24 17 11 13 11 7 5 4 4 4 4 5 9 13 10 6 4 5 3 3 1 1 1 3 4 1 3 3 3 3 2 10 7 2 3 5 6 13 15 15 17 17 16 13 9 6 5 6 8 10 11 14 18
26 20 19 12 11 8 8 7 3 4 5 7 4 2 8 8 4 5 6 5 3 3 1 1 1 2 3 3 3 3 5 8 6 4 0 4 7 7 14 15 13 12 13 14 14 12 9 6 5 7 9 11 13 17
11 19 21 14 12 7 4 5 4 4 7 4 6 9 6 6 9 9 9 7 5 4 2 1 2 3 4 4 5 9 13 10 7 5 5 7 6 9 12 12 14 14 13 11 11 11 10 9 8 7 8 11 14 16
18 22 17 12 12 7 4 4 5 5 3 3 5 4 4 4 7 12 14 11 7 4 2 4 5 4 5 7 8 12 9 7 5 4 4 5 7 9 12 14 16 17 16 14 11 11 10 9 9 8 8 10 13 17
20 15 20 17 15 9 4 4 5 4 3 4 3 4 4 6 6 6 7 10 8 5 3 13 13 8 8 8 8 6 6 5 3 3 5 9 10 12 13 14 16 16 16 16 16 13 11 12 10 10 11 12 12 15
21 28 26 22 6 8 6 7 3 2 3 2 2 4 4 2 3 4 8 8 7 10 12 12 12 13 14 13 9 8 7 5 4 5 8 10 13 14 14 15 17 17 16 17 18 16 15 14 13 13 13 13 14 16
26 29 13 8 5 10 3 6 4 3 2 2 2 2 3 3 4 5 5 8 10 16 18 19 14 12 13 12 12 12 10 8 6 8 11 13 16 17 18 19 19 21 23 20 18 20 19 15 14 14 12 15 16 16
21 14 8 11 8 5 5 5 4 3 2 1 1 3 3 3 4 3 4 6 11 11 15 18 17 17 16 17 17 15 14 12 12 13 15 17 21 22 21 22 22 22 21 23 23 21 20 18 14 15 14 14 16 18
7 9 7 4 6 5 3 2 2 2 3 3 3 3 2 4 0 3 3 6 13 16 14 14 17 17 16 12 10 11 13 16 17 19 22 22 25 29 27 25 24 24 22 22 18 18 17 16 15 16 16 17 18 19
5 11 10 11 4 6 5 5 6 6 3 4 4 1 2 1 1 6 3 4 10 10 16 16 14 15 16 13 11 11 13 15 18 23 27 30 31 29 30 30 30 30 22 19 20 21 21 20 16 16 17 19 20 21
6 6 8 6 8 7 4 3 5 3 5 5 3 4 3 3 6 4 5 7 6 11 12 10 9 10 10 12 15 18 20 21 23 26 32 32 32 32 31 32 33 32 29 25 21 21 23 22 22 19 17 17 20 24
7 13 8 15 8 8 5 3 5 7 4 7 9 5 5 7 4 2 5 8 14 13 11 8 8 11 14 16 19 20 22 25 29 30 29 30 32 30 26 26 27 26 24 24 23 21 21 22 23 22 19 18 19 22
7 12 16 4 5 6 10 6 7 10 9 13 6 4 4 6 4 4 6 9 15 16 13 12 14 16 18 19 21 24 25 24 25 28 30 32 33 28 23 22 22 21 19 20 19 18 18 18 19 23 21 17 18 20
13 25 6 8 6 7 12 15 7 11 16 14 8 6 8 12 12 10 11 12 14 16 18 20 22 22 21 20 18 17 19 20 23 25 28 30 31 29 25 22 19 18 19 21 21 19 18 18 18 18 20 20 20 21
22 17 6 7 5 6 9 15 11 11 10 11 16 16 16 14 24 27 26 26 27 27 26 25 22 19 16 14 16 18 20 18 19 22 24 27 27 25 23 21 18 17 17 18 19 18 17 15 17 21 24 22 19 21
11 11 8 4 2 6 9 9 8 6 5 6 6 9 7 6 6 11 17 17 16 17 17 15 12 11 12 12 15 17 20 21 21 23 24 24 22 18 21 20 16 12 13 16 15 14 14 14 14 18 20 19 20 22
5 7 5 7 4 4 6 6 4 2 4 3 4 4 6 5 8 7 7 9 10 9 9 9 8 8 9 11 14 15 17 18 18 19 20 18 15 15 20 15 12 12 11 10 10 11 11 11 15 17 18 18 19 20